Location: Normandy Village
(37.8755°N, 122.2655°W)
Time: 05:55:03
(UTC+00:00)

ATLAS 3B R/B - Pass Details

Date: 08 December 2019
Orbit: 1027 x 1168 km, 63.8° (Epoch: 19 January)

Event Time Altitude Azimuth Distance (km) Brightness Sun altitude
Rises 01:31:08 0° 326° (NW) 3,805 5.8 -8.2°
Reaches altitude 10° 01:33:44 10° 324° (NW) 2,861 5.1 -8.7°
Maximum altitude 01:40:28 74° 241° (WSW) 1,107 3.0 -9.9°
Drops below altitude 10° 01:47:24 10° 157° (SSE) 2,939 5.0 -11.2°
Sets 01:50:05 0° 156° (SSE) 3,914 5.6 -11.7°
